Weather History for Philadelphia Wings Airport, PA

Change the Weather History Date:

Friday, February 8, 2013

  Actual Average (KPNE) Record (KPNE)
Temperature  
Mean Temperature 34 °F -  
Max Temperature 35 °F 40 °F 61 °F (2009)
Min Temperature 33 °F 24 °F 14 °F (2007)
Degree Days  
Heating Degree Days 31    
Moisture  
Dew Point 32 °F    
Average Humidity 90    
Maximum Humidity 100    
Minimum Humidity 75    
Precipitation  
Precipitation 0.11 in - - ()
Sea Level Pressure  
Sea Level Pressure 29.89 in    
Wind  
Wind Speed 9 mph (NNE)    
Max Wind Speed 16 mph    
Max Gust Speed 23 mph    
Visibility 7 miles    
Events      
Averages and records for this station are not official NWS values.
T = Trace of Precipitation, MM = Missing Value Source: NWS Daily Summary

Daily Weather History Graph

Daily Weather History Graph

Search for Another Location

Airport:

Trip Planner

Search our weather history database for the weather conditions in past years. The results will help you decide how hot, cold, wet, or windy it might be!

Date:

Astronomy

Feb. 08, 2013 Rise Set
Actual Time 7:02 AM EST 5:28 PM EST
Civil Twilight 6:34 AM EST 5:56 PM EST
Nautical Twilight 6:02 AM EST 6:29 PM EST
Astronomical Twilight 5:30 AM EST 7:00 PM EST
Moon 5:29 AM EST (2/8) 3:59 PM EST (2/8)
Length of Visible Light 11h 22m
Length of Day
10h 26m
Waning Crescent, 3% of the Moon is Illuminated
Feb 8
Waning Crescent
Feb 10
New
Feb 17
First Quarter
Feb 25
Full
Mar 4
Last Quarter

Hourly Weather History & Observations

Time (EST) Temp. Windchill Dew Point Humidity Pressure Visibility Wind Dir Wind Speed Gust Speed Precip Events Conditions
12:15 AM 33.8 °F 27.0 °F 26.6 °F 75% 30.25 in 10.0 mi ENE 8.1 mph - N/A   Overcast
12:35 AM 33.8 °F 26.4 °F 26.6 °F 75% 30.24 in 10.0 mi ENE 9.2 mph - N/A   Overcast
12:55 AM 33.8 °F 26.4 °F 26.6 °F 75% 30.23 in 10.0 mi ENE 9.2 mph - N/A   Overcast
1:15 AM 33.8 °F 26.4 °F 26.6 °F 75% 30.21 in 10.0 mi ENE 9.2 mph - N/A   Overcast
1:35 AM 33.8 °F 27.0 °F 28.4 °F 81% 30.20 in 10.0 mi ENE 8.1 mph - N/A   Overcast
1:55 AM 33.8 °F 27.0 °F 28.4 °F 81% 30.19 in 10.0 mi ENE 8.1 mph - N/A   Overcast
2:15 AM 33.8 °F 27.0 °F 30.2 °F 87% 30.19 in 10.0 mi ENE 8.1 mph - N/A   Overcast
2:35 AM 33.8 °F 26.4 °F 30.2 °F 87% 30.18 in 10.0 mi ENE 9.2 mph - N/A   Overcast
2:55 AM 33.8 °F 27.0 °F 30.2 °F 87% 30.16 in 10.0 mi ENE 8.1 mph - N/A   Overcast
3:15 AM 33.8 °F 26.4 °F 30.2 °F 87% 30.15 in 10.0 mi ENE 9.2 mph - N/A   Overcast
3:35 AM 35.6 °F 29.2 °F 32.0 °F 87% 30.13 in 10.0 mi ENE 8.1 mph - N/A   Overcast
3:55 AM 35.6 °F 28.6 °F 32.0 °F 87% 30.12 in 10.0 mi ENE 9.2 mph - N/A   Overcast
4:35 AM 35.6 °F 29.9 °F 32.0 °F 87% 30.11 in 10.0 mi ENE 6.9 mph - N/A   Overcast
4:55 AM 35.6 °F 30.7 °F 32.0 °F 87% 30.10 in 10.0 mi NE 5.8 mph - N/A   Overcast
5:15 AM 35.6 °F 29.2 °F 32.0 °F 87% 30.09 in 10.0 mi ENE 8.1 mph - N/A   Overcast
5:35 AM 35.6 °F 28.0 °F 32.0 °F 87% 30.08 in 10.0 mi NE 10.4 mph - N/A   Overcast
6:15 AM 35.6 °F 29.2 °F 33.8 °F 93% 30.05 in 5.0 mi NE 8.1 mph - N/A   Overcast
6:35 AM 35.6 °F 29.2 °F 33.8 °F 93% 30.04 in 7.0 mi NE 8.1 mph - N/A   Overcast
6:55 AM 35.6 °F 27.5 °F 33.8 °F 93% 30.04 in 7.0 mi ENE 11.5 mph 17.3 mph N/A   Overcast
7:15 AM 35.6 °F 27.1 °F 33.8 °F 93% 30.03 in 7.0 mi NE 12.7 mph 18.4 mph 0.01 in   Overcast
7:35 AM 35.6 °F 29.2 °F 33.8 °F 93% 30.02 in 7.0 mi NE 8.1 mph - 0.01 in   Overcast
7:55 AM 35.6 °F 28.6 °F 33.8 °F 93% 30.02 in 5.0 mi NE 9.2 mph - 0.01 in   Overcast
8:15 AM 33.8 °F 25.8 °F 32.0 °F 93% 30.01 in 5.0 mi ENE 10.4 mph - N/A   Overcast
8:35 AM 33.8 °F 25.8 °F 33.8 °F 100% 29.99 in 5.0 mi ENE 10.4 mph 18.4 mph 0.01 in   Overcast
8:55 AM 33.8 °F 25.8 °F 33.8 °F 100% 29.98 in 5.0 mi NE 10.4 mph 18.4 mph 0.01 in   Overcast
9:15 AM 35.6 °F 27.5 °F 33.8 °F 93% 29.97 in 5.0 mi ENE 11.5 mph 16.1 mph N/A   Overcast
9:35 AM 35.6 °F 27.5 °F 33.8 °F 93% 29.95 in 5.0 mi ENE 11.5 mph 18.4 mph 0.01 in   Overcast
9:55 AM 35.6 °F 27.5 °F 33.8 °F 93% 29.94 in 5.0 mi NE 11.5 mph 21.9 mph 0.02 in   Overcast
10:15 AM 35.6 °F 26.6 °F 33.8 °F 93% 29.92 in 7.0 mi NE 13.8 mph 19.6 mph N/A   Overcast
10:35 AM 35.6 °F 25.9 °F 33.8 °F 93% 29.90 in 7.0 mi NE 16.1 mph 21.9 mph N/A   Overcast
10:55 AM 35.6 °F 27.1 °F 33.8 °F 93% 29.89 in 10.0 mi NE 12.7 mph 23.0 mph 0.01 in   Overcast
11:15 AM 35.6 °F 28.0 °F 33.8 °F 93% 29.87 in 7.0 mi NE 10.4 mph 17.3 mph N/A   Overcast
11:35 AM 35.6 °F 27.1 °F 33.8 °F 93% 29.86 in 10.0 mi NE 12.7 mph 18.4 mph N/A   Overcast
11:55 AM 35.6 °F 26.2 °F 33.8 °F 93% 29.84 in 10.0 mi NE 15.0 mph 19.6 mph 0.01 in   Overcast
12:15 PM 35.6 °F 28.6 °F 33.8 °F 93% 29.82 in 7.0 mi NE 9.2 mph 17.3 mph N/A   Overcast
12:35 PM 35.6 °F 29.2 °F 33.8 °F 93% 29.80 in 7.0 mi NNE 8.1 mph 16.1 mph N/A   Overcast
12:55 PM 35.6 °F 29.2 °F 33.8 °F 93% 29.78 in 7.0 mi NE 8.1 mph 18.4 mph 0.01 in   Overcast
1:15 PM 35.6 °F 28.6 °F 33.8 °F 93% 29.76 in 10.0 mi NNE 9.2 mph - N/A   Overcast
1:35 PM 35.6 °F 28.6 °F 33.8 °F 93% 29.75 in 10.0 mi NNE 9.2 mph 19.6 mph 0.01 in   Overcast
1:55 PM 35.6 °F 29.2 °F 33.8 °F 93% 29.74 in 10.0 mi NE 8.1 mph - 0.01 in   Overcast
2:15 PM 35.6 °F 28.0 °F 33.8 °F 93% 29.73 in 10.0 mi NNE 10.4 mph 19.6 mph N/A   Overcast
2:35 PM 35.6 °F 29.9 °F 33.8 °F 93% 29.72 in 7.0 mi NNE 6.9 mph - N/A   Overcast
2:55 PM 35.6 °F 29.9 °F 33.8 °F 93% 29.71 in 10.0 mi NNE 6.9 mph 16.1 mph N/A   Overcast
3:15 PM 35.6 °F 27.5 °F 33.8 °F 93% 29.70 in 10.0 mi NNE 11.5 mph 20.7 mph N/A   Overcast
3:35 PM 35.6 °F 30.7 °F 32.0 °F 87% 29.70 in 10.0 mi NNE 5.8 mph - N/A   Overcast
3:55 PM 35.6 °F 29.9 °F 32.0 °F 87% 29.71 in 10.0 mi NNE 6.9 mph - N/A   Overcast
4:15 PM 35.6 °F 30.7 °F 32.0 °F 87% 29.70 in 10.0 mi NNE 5.8 mph - N/A   Overcast
4:35 PM 35.6 °F 28.6 °F 32.0 °F 87% 29.70 in 10.0 mi NE 9.2 mph 17.3 mph N/A   Overcast
4:55 PM 35.6 °F 29.9 °F 32.0 °F 87% 29.69 in 10.0 mi NNE 6.9 mph 16.1 mph N/A   Overcast
5:15 PM 35.6 °F 29.2 °F 32.0 °F 87% 29.69 in 10.0 mi NNE 8.1 mph - N/A   Overcast
5:35 PM 35.6 °F 29.9 °F 32.0 °F 87% 29.69 in 10.0 mi North 6.9 mph - N/A   Overcast
5:55 PM 35.6 °F 29.9 °F 32.0 °F 87% 29.69 in 10.0 mi North 6.9 mph - N/A   Overcast
6:15 PM 35.6 °F 30.7 °F 32.0 °F 87% 29.69 in 5.0 mi North 5.8 mph - N/A   Overcast
6:35 PM 33.8 °F 27.7 °F 32.0 °F 93% 29.70 in 2.5 mi NNW 6.9 mph - N/A   Overcast
6:55 PM 33.8 °F 26.4 °F 32.0 °F 93% 29.71 in 2.5 mi WNW 9.2 mph - 0.01 in   Overcast
7:15 PM 33.8 °F 27.7 °F 32.0 °F 93% 29.72 in 1.8 mi NW 6.9 mph - N/A   Overcast
7:35 PM 33.8 °F 28.6 °F 32.0 °F 93% 29.72 in 1.2 mi NW 5.8 mph - N/A   Overcast
7:55 PM 33.8 °F 27.0 °F 32.0 °F 93% 29.73 in 1.2 mi NW 8.1 mph - 0.01 in   Overcast
8:15 PM 33.8 °F 27.7 °F 32.0 °F 93% 29.73 in 1.5 mi NW 6.9 mph 16.1 mph N/A   Overcast
8:35 PM 33.8 °F 27.7 °F 32.0 °F 93% 29.74 in 1.2 mi NW 6.9 mph - N/A   Overcast
8:55 PM 33.8 °F 26.4 °F 32.0 °F 93% 29.74 in 1.8 mi NW 9.2 mph - 0.01 in   Overcast
9:15 PM 33.8 °F 27.0 °F 32.0 °F 93% 29.74 in 2.5 mi NNW 8.1 mph - N/A   Overcast
9:35 PM 33.8 °F 27.0 °F 32.0 °F 93% 29.74 in 3.0 mi North 8.1 mph - N/A   Overcast
9:55 PM 33.8 °F 27.0 °F 32.0 °F 93% 29.74 in 3.0 mi North 8.1 mph - N/A   Overcast
10:15 PM 33.8 °F 29.6 °F 32.0 °F 93% 29.74 in 7.0 mi North 4.6 mph - N/A   Overcast
10:35 PM 33.8 °F 30.8 °F 32.0 °F 93% 29.75 in 10.0 mi NW 3.5 mph - N/A   Mostly Cloudy
10:55 PM 33.8 °F 29.6 °F 32.0 °F 93% 29.76 in 10.0 mi NW 4.6 mph - N/A   Mostly Cloudy
11:15 PM 33.8 °F 30.8 °F 32.0 °F 93% 29.76 in 4.0 mi NW 3.5 mph - N/A   Overcast
11:35 PM 33.8 °F 29.6 °F 32.0 °F 93% 29.77 in 2.0 mi WNW 4.6 mph - N/A   Overcast
11:55 PM 33.8 °F 28.6 °F 32.0 °F 93% 29.77 in 3.0 mi NNW 5.8 mph - N/A   Overcast